Santa Barbara, CA

4:19 AM PST on January 24, 2018 (GMT -0800)
Santa Barbara Municipal

Weather History for KSBA - September, 2012

Change the Weather History Date:

Saturday, September 22, 2012

  Actual Average Record
Temperature  
Mean Temperature 68 °F 64 °F  
Max Temperature 76 °F 74 °F 91 °F (1987)
Min Temperature 59 °F 55 °F 44 °F (1944)
Degree Days  
Heating Degree Days 0 2  
Month to date heating degree days 8 25  
Since 1 July heating degree days 74 76  
Cooling Degree Days 3 1  
Month to date cooling degree days 56 37  
Year to date cooling degree days 177 164  
Growing Degree Days 17 (Base 50)    
Moisture  
Dew Point 61 °F    
Average Humidity 83    
Maximum Humidity 97    
Minimum Humidity 68    
Precipitation  
Precipitation 0.00 in 0.02 in 0.01 in (1990)
Month to date precipitation 0.08 0.15  
Year to date precipitation 6.80 12.35  
Since 1 July precipitation 0.10  
Sea Level Pressure  
Sea Level Pressure 29.89 in    
Wind  
Wind Speed 3 mph (South)    
Max Wind Speed 10 mph    
Max Gust Speed 15 mph    
Visibility 8 miles    
Events      
T = Trace of Precipitation, MM = Missing Value Source: NWS Daily Summary

Daily Weather History Graph

Daily Weather History Graph

Search for Another Location

Airport or City:

Trip Planner

Search our weather history database for the weather conditions in past years. The results will help you decide how hot, cold, wet, or windy it might be!

Date:

Astronomy

Sep. 22, 2012 Rise Set
Actual Time 6:47 AM PDT 6:55 PM PDT
Civil Twilight 6:22 AM PDT 7:20 PM PDT
Nautical Twilight 5:53 AM PDT 7:49 PM PDT
Astronomical Twilight 5:23 AM PDT 8:19 PM PDT
Moon 1:55 PM PDT (9/22) No Moon Set
Length of Visible Light 12h 57m
Length of Day
12h 07m
Waxing Crescent, 50% of the Moon is Illuminated
Sep 22
Waxing Crescent
Sep 22
First Quarter
Sep 29
Full
Oct 8
Last Quarter
Oct 15
New

Hourly Weather History & Observations

Time (PDT) Temp. Dew Point Humidity Pressure Visibility Wind Dir Wind Speed Gust Speed Precip Events Conditions
12:53 AM 64.9 °F 61.0 °F 87% 29.84 in 7.0 mi East 4.6 mph - N/A   Clear
1:53 AM 64.0 °F 61.0 °F 90% 29.85 in 7.0 mi East 4.6 mph - N/A   Clear
2:53 AM 64.0 °F 61.0 °F 90% 29.86 in 7.0 mi ESE 10.4 mph - N/A   Clear
3:53 AM 63.0 °F 60.1 °F 90% 29.87 in 7.0 mi ESE 4.6 mph - N/A   Partly Cloudy
4:53 AM 62.1 °F 59.0 °F 90% 29.87 in 7.0 mi Calm Calm - N/A   Clear
5:53 AM 62.1 °F 60.1 °F 93% 29.88 in 8.0 mi Calm Calm - N/A   Clear
6:53 AM 61.0 °F 59.0 °F 93% 29.90 in 8.0 mi Calm Calm - N/A   Mostly Cloudy
7:53 AM 62.1 °F 60.1 °F 93% 29.91 in 8.0 mi Calm Calm - N/A   Clear
8:53 AM 70.0 °F 62.1 °F 76% 29.92 in 8.0 mi Calm Calm - N/A   Overcast
9:53 AM 70.0 °F 63.0 °F 78% 29.92 in 8.0 mi SE 5.8 mph - N/A   Clear
10:53 AM 69.1 °F 63.0 °F 81% 29.93 in 7.0 mi South 4.6 mph - N/A   Mostly Cloudy
11:53 AM 69.1 °F 63.0 °F 81% 29.93 in 7.0 mi SSE 3.5 mph - N/A   Overcast
12:53 PM 73.9 °F 64.9 °F 73% 29.93 in 10.0 mi SW 4.6 mph - N/A   Mostly Cloudy
1:53 PM 73.9 °F 63.0 °F 68% 29.91 in 10.0 mi WSW 4.6 mph - N/A   Mostly Cloudy
2:53 PM 73.9 °F 63.0 °F 68% 29.89 in 10.0 mi West 8.1 mph - N/A   Clear
3:53 PM 72.0 °F 63.0 °F 73% 29.88 in 9.0 mi West 6.9 mph - N/A   Clear
4:53 PM 70.0 °F 62.1 °F 76% 29.88 in 9.0 mi WSW 8.1 mph - N/A   Clear
5:53 PM 70.0 °F 62.1 °F 76% 29.88 in 9.0 mi WSW 9.2 mph - N/A   Clear
6:53 PM 66.9 °F 61.0 °F 81% 29.87 in 8.0 mi SW 3.5 mph - N/A   Clear
7:53 PM 64.9 °F 61.0 °F 87% 29.88 in 8.0 mi Calm Calm - N/A   Clear
8:53 PM 64.9 °F 61.0 °F 87% 29.89 in 8.0 mi Calm Calm - N/A   Clear
9:53 PM 64.9 °F 61.0 °F 87% 29.89 in 8.0 mi Calm Calm - N/A   Clear
10:53 PM 63.0 °F 60.1 °F 90% 29.89 in 7.0 mi Calm Calm - N/A   Clear
11:53 PM 61.0 °F 59.0 °F 93% 29.89 in 6.0 mi Calm Calm - N/A   Clear